RADIO ROSTO (RS-15)

Last updated on Thu Jan 15 2026 00:03:09 GMT+0000 (Coordinated Universal Time)

1 23439U 94085A 26014.59518477 .00000005 00000+0 13440-2 0 9994 2 23439 64.8127 191.6150 0150881 32.3245 328.6817 11.27583788278581
UTC large
Height (km)
Speed (km/s)
/
Latitude / Longitude
Inclination (degrees)
Orbital Period (minutes)
Azimuth
Elevation
Range (km)
Doppler Factor

Next 0 passes for location: London (51.5072 / 0.1276)

Sorry there are no passes over London.
RADIO ROSTO (RS-15)